Regional Weather Roundup
Issued by NWS

Home | Current Version | Previous Version | Graphics & Text | Print | Product List | Glossary On
Versions: 1 2 3 4 5 6 7 8 9 10 11 12 13 14 15 16 17 18 19 20 21 22 23 24 25 26 27 28 29 30 31 32 33 34 35 36 37 38 39 40 41 42 43 44 45 46 47 48 49 50
000
ASUS43 KLOT 242300
RWRIL

ILLINOIS REGIONAL WEATHER ROUNDUP
NATIONAL WEATHER SERVICE CHICAGO/ROMEOVILLE IL
600 PM CDT THU JUL 24 2014

NOTE: "FAIR" INDICATES FEW OR NO CLOUDS BELOW 12,000 FEET WITH NO
SIGNIFICANT WEATHER AND/OR OBSTRUCTIONS TO VISIBILITY.

* THESE STATIONS ARE NOT UNDER NWS QUALITY CONTROL. THEY ALSO MAY NOT
  REPORT WEATHER SUCH AS PRECIPITATION OR FOG.

ILZ001-002-007-009-015-016-024-250000-
NORTHWEST ILLINOIS

CITY           SKY/WX    TMP DP  RH WIND       PRES   REMARKS
MOLINE         PTSUNNY   76  55  48 S3        30.07F
STERLING*      MOSUNNY   75  55  50 CALM      30.08F
$$

ILZ003-004-008-010-011-017-018-250000-
NORTH CENTRAL ILLINOIS

CITY           SKY/WX    TMP DP  RH WIND       PRES   REMARKS
ROCKFORD       PTSUNNY   74  53  48 SW7       30.09F
FREEPORT*      MOSUNNY   73  55  54 S3        30.11S
$$

ILZ005-006-012>014-019>023-250000-
NORTHEAST ILLINOIS

CITY           SKY/WX    TMP DP  RH WIND       PRES   REMARKS
CHICAGO-OHARE  MOSUNNY   74  43  32 E7        30.09S
CHICAGO-MIDWAY MOSUNNY   73  46  38 E6        30.09S
AURORA         SUNNY     77  47  34 CALM      30.08F
LANSING*       SUNNY     70  49  47 E5        30.09F
WAUKEGAN       SUNNY     68  43  40 SE8       30.09F
DUPAGE AIRPORT SUNNY     76  46  34 CALM      30.07F
WHEELING       SUNNY     71  45  39 E6        30.10F
$$

LMZ740>746-250000-
SOUTHERN LAKE MICHIGAN

STATION/POSITION SKY/WX   TEMP    WIND        PRES    VSBY  WAVE
                          AIR SEA DIR/SP/G                  HT/PER
                          (F)     (DEG/KT/KT) (MB)    (MI)  (FT/S)
SOUTHERN BUOY              62 62  310/  4/  6 1019.3F         1
WAUKEGAN HARBOR            64     120/  4/  5   N/A
HARRISON CRIB              64      10/  7/  8   N/A
CALUMET HARBOR             67      10/  6/  8 1018.1R
BURNS HARBOR               66      30/  8/  9 1020.0S
MICHIGAN CITY              65     360/  9/ 11   N/A
MICHIGAN CITY 6N           66 69   10/  8/ 10   N/A           2/ 2
ST. JOSEPH                 58 51  330/  4/  6   N/A           1/ 3
$$

ILZ025>027-034>036-040-047-049-050-058-095>099-250000-
WEST-CENTRAL ILLINOIS

CITY           SKY/WX    TMP DP  RH WIND       PRES   REMARKS
QUINCY         MOSUNNY   78  54  43 N5        30.08S
GALESBURG*     CLOUDY    79  57  45 CALM      30.09S HX  80
MACOMB*        MOSUNNY   76  56  48 CALM      30.11S
$$

ILZ028>032-037-038-041>044-048-051>054-059>061-250000-
CENTRAL ILLINOIS

CITY           SKY/WX    TMP DP  RH WIND       PRES   REMARKS
PONTIAC        SUNNY     75  54  46 CALM      30.07F
DECATUR        SUNNY     76  56  49 E7        30.07S
PEORIA         MOSUNNY   79  53  40 VRB3      30.07F
SPRINGFIELD    SUNNY     78  54  43 E6        30.08R
TAYLORVILLE    NOT AVBL
$$

ILZ033-039-045-046-055>057-062-063-250000-
EAST-CENTRAL ILLINOIS

CITY           SKY/WX    TMP DP  RH WIND       PRES   REMARKS
CHAMPAIGN      SUNNY     76  55  48 NE7       30.08R
MATTOON        SUNNY     76  55  48 N6        30.06R
$$

ILZ079-100>102-250000-
SOUTHWEST ILLINOIS

CITY           SKY/WX    TMP DP  RH WIND       PRES   REMARKS
ALTON          SUNNY     77  54  44 N7        30.06R
BELLEVILLE     MOSUNNY   80  57  44 N6        30.04R HX  81
CAHOKIA*       MOSUNNY   81  53  37 SE5       30.05R HX  80
SPARTA*        SUNNY     77  55  47 NE7       30.05S
$$

ILZ064>066-069>071-074>076-080>082-084>086-088>090-092>094-250000-
SOUTH-CENTRAL ILLINOIS

CITY           SKY/WX    TMP DP  RH WIND       PRES   REMARKS
CARBONDALE     MOSUNNY   79  57  46 NE7       30.04S HX  80
MT. VERNON     MOSUNNY   79  57  47 N6        30.05F HX  80
SALEM*         SUNNY     80  56  44 NE5       30.05S HX  80
$$

ILZ067-068-072-073-078-083-087-091-250000-
SOUTHEAST ILLINOIS

CITY           SKY/WX    TMP DP  RH WIND       PRES   REMARKS
LAWRENCEVILLE  MOSUNNY   79  57  46 N10       30.04S HX  80
HARRISBURG*    SUNNY     77  60  55 N5        30.04F
ROBINSON*      SUNNY     77  60  55 NE3       30.06R
CARMI*         PTSUNNY   79  61  53 NE6       30.03S HX  80
$$

ABBREVIATIONS USED IN REMARKS
   TC - TEMPERATURE IN CELSIUS
  WCI - WIND CHILL INDEX
   HX - HEAT INDEX
  VSB - VISIBILITY
$$



USA.gov is the U.S. government's official web portal to all federal, state and local government web resources and services.